sat.trackr.live / text

‹ back to catalog

STARLINK-37376

NORAD 69378 · 2026-123AB

PAYLOAD ACTIVE UNKNOWN

§ Identity

Operator
Country
US
Launch date
2026-06-04
Launch site
AFETR
Launch vehicle
Mass (kg)
RCS (m²)

Purposes: comms

External: N2YO · Heavens-Above · Gunter

§ Orbital elements

Epoch: 2026-09-19T04:28:01.519680Z

Period
93.85 min
Inclination
53.1554°
Eccentricity
0.0000678
Mean motion
15.34395951 rev/d
Perigee alt
462.3 km
Apogee alt
463.2 km
Semi-major
6,840.9 km
B*
1.1703e-3
RAAN
148.1961°
Arg perigee
185.2233°
Mean anomaly
174.8763°
Rev number
1,666

§ Raw data

STARLINK-373761 69378U 26123AB  26262.18612870  .00039368  00000+0  11703-2 0  99902 69378  53.1554 148.1961 0000678 185.2233 174.8763 15.34395951 16663

JSON: /api/v1/satellites/69378 · /tle

For live sub-satellite position, see the globe view (requires WebGL).

§ Visibility from observer

Set your observer location to see the next 7 days of passes ≥ 10°. The values pass through the URL so the page stays shareable.

No JS? Fill the form by hand. The geolocation button needs JavaScript.